Location: Albany
(35.0000°S, 118.0000°E)
Time: 02:38:19
(UTC-05:00)

Cosmos 1626 - Visible Passes

Search period start: 09 December 2016 00:00
Search period end: 19 December 2016 00:00
Orbit: 498 x 502 km, 82.5° (Epoch: 07 December)

Date Brightness Start Highest point End Pass type
(mag) Time Alt. Az. Time Alt. Az. Time Alt. Az.
09 Dec 4.8 10:40:55 10° S 10:42:05 19° S 10:42:05 19° S visible
10 Dec 4.7 10:21:03 10° S 10:22:17 19° S 10:22:17 19° S visible
11 Dec 4.7 10:01:16 10° SSE 10:02:29 18° SSE 10:02:29 18° SSE visible
12 Dec 4.7 09:41:37 10° SSE 09:42:42 16° SSE 09:42:42 16° SSE visible
13 Dec 4.8 09:22:08 10° SSE 09:22:56 13° SE 09:22:56 13° SE visible
13 Dec 5.1 10:57:05 10° SW 10:57:37 13° SW 10:57:37 13° SW visible
14 Dec 4.9 09:03:01 10° SE 09:03:10 10° SE 09:03:10 10° SE visible
14 Dec 4.9 10:36:47 10° SSW 10:37:51 17° SW 10:37:51 17° SW visible
15 Dec 4.6 10:16:38 10° SSW 10:18:06 21° SSW 10:18:06 21° SSW visible
16 Dec 4.3 09:56:34 10° SSW 09:58:21 26° SSW 09:58:21 26° SSW visible
17 Dec 4.0 09:36:36 10° S 09:38:37 30° S 09:38:37 30° S visible
18 Dec 3.8 09:16:43 10° S 09:18:54 30° SSE 09:18:54 30° SSE visible
